Weather History for KTRK - August, 2013

Change the Weather History Date:

Monday, August 19, 2013

  Actual Average (KRNO) Record (KRNO)
Temperature  
Mean Temperature 64 °F 73 °F  
Max Temperature 77 °F 90 °F 99 °F (2009)
Min Temperature 50 °F 55 °F 34 °F (1974)
Degree Days  
Heating Degree Days 2 0  
Month to date heating degree days 0  
Since 1 June heating degree days 61  
Since 1 July heating degree days 5  
Cooling Degree Days 0 8  
Month to date cooling degree days 180  
Year to date cooling degree days 667  
Since 1 June cooling degree days 630  
Growing Degree Days 14 (Base 50)    
Moisture  
Dew Point 44 °F    
Average Humidity 57    
Maximum Humidity 72    
Minimum Humidity 29    
Precipitation  
Precipitation 0.00 in 0.00 in 0.28 in (1975)
Month to date precipitation 0.16  
Year to date precipitation 4.62  
Snow  
Snow 0.00 in 0.00 in 0.00 in ()
Month to date snowfall 0.0  
Since 1 June snowfall T  
Since 1 July snowfall 0.0  
Snow Depth -    
Sea Level Pressure  
Sea Level Pressure 30.25 in    
Wind  
Wind Speed 2 mph (ESE)    
Max Wind Speed 10 mph    
Max Gust Speed -    
Visibility 9 miles    
Events      
T = Trace of Precipitation, MM = Missing Value Source: NWS Daily Summary

Daily Weather History Graph

Daily Weather History Graph

Search for Another Location

Airport or City:

Trip Planner

Search our weather history database for the weather conditions in past years. The results will help you decide how hot, cold, wet, or windy it might be!

Date:

Astronomy

Aug. 19, 2013 Rise Set
Actual Time 6:17 AM PDT 7:50 PM PDT
Civil Twilight 5:49 AM PDT 8:18 PM PDT
Nautical Twilight 5:14 AM PDT 8:52 PM PDT
Astronomical Twilight 4:38 AM PDT 9:28 PM PDT
Moon 6:44 PM PDT (8/19) 4:42 AM PDT (8/19)
Length of Visible Light 14h 29m
Length of Day
13h 32m
Waxing Gibbous, 98% of the Moon is Illuminated
Aug 19
Waxing Gibbous
Aug 20
Full
Aug 28
Last Quarter
Sep 5
New
Sep 12
First Quarter

Hourly Weather History & Observations

Time (PDT) Temp. Dew Point Humidity Pressure Visibility Wind Dir Wind Speed Gust Speed Precip Events Conditions
12:15 AM 57.2 °F 41.0 °F 55% 30.26 in 7.0 mi Calm Calm - N/A   Clear
12:35 AM 57.2 °F 41.0 °F 55% 30.26 in 8.0 mi East 3.5 mph - N/A   Clear
12:55 AM 53.6 °F 39.2 °F 58% 30.26 in 8.0 mi Calm Calm - N/A   Clear
1:15 AM 55.4 °F 39.2 °F 54% 30.26 in 8.0 mi SE 3.5 mph - N/A   Clear
1:35 AM 55.4 °F 39.2 °F 54% 30.26 in 8.0 mi Calm Calm - N/A   Clear
1:55 AM 53.6 °F 39.2 °F 58% 30.26 in 8.0 mi Calm Calm - N/A   Clear
2:15 AM 55.4 °F 41.0 °F 58% 30.25 in 9.0 mi Calm Calm - N/A   Clear
2:35 AM 53.6 °F 39.2 °F 58% 30.25 in 8.0 mi SW 3.5 mph - N/A   Clear
2:55 AM 55.4 °F 39.2 °F 54% 30.25 in 9.0 mi North 4.6 mph - N/A   Clear
3:15 AM 50.0 °F 37.4 °F 62% 30.25 in 9.0 mi South 3.5 mph - N/A   Clear
3:35 AM 51.8 °F 39.2 °F 62% 30.25 in 9.0 mi Calm Calm - N/A   Clear
3:55 AM 53.6 °F 39.2 °F 58% 30.25 in 9.0 mi Calm Calm - N/A   Clear
4:15 AM 53.6 °F 39.2 °F 58% 30.24 in 10.0 mi Calm Calm - N/A   Clear
4:35 AM 50.0 °F 39.2 °F 66% 30.24 in 9.0 mi East 3.5 mph - N/A   Clear
4:55 AM 51.8 °F 41.0 °F 67% 30.24 in 9.0 mi Calm Calm - N/A   Clear
5:15 AM 51.8 °F 39.2 °F 62% 30.24 in 10.0 mi SSW 3.5 mph - N/A   Clear
5:35 AM 50.0 °F 41.0 °F 71% 30.24 in 9.0 mi Calm Calm - N/A   Clear
5:55 AM 53.6 °F 41.0 °F 62% 30.24 in 9.0 mi Calm Calm - N/A   Clear
6:15 AM 53.6 °F 39.2 °F 58% 30.25 in 9.0 mi Calm Calm - N/A   Clear
6:35 AM 50.0 °F 39.2 °F 66% 30.25 in 10.0 mi Calm Calm - N/A   Partly Cloudy
6:45 AM 51.8 °F 39.2 °F 62% 30.26 in 9.0 mi Calm Calm - N/A   Mostly Cloudy
7:45 AM 55.4 °F 41.0 °F 58% 30.27 in 8.0 mi Calm Calm - N/A   Mostly Cloudy
8:55 AM 59.0 °F 41.0 °F 51% 30.27 in 8.0 mi Calm Calm - N/A   Mostly Cloudy
9:50 AM 62.6 °F 42.8 °F 48% 30.28 in 8.0 mi SSW 3.5 mph - N/A   Mostly Cloudy
10:55 AM 66.2 °F 42.8 °F 43% 30.30 in 6.0 mi Calm Calm - N/A   Haze
11:50 AM 75.2 °F 44.6 °F 34% 30.29 in 6.0 mi North 4.6 mph - N/A   Haze
12:45 PM 77.0 °F 42.8 °F 29% 30.30 in 10.0 mi SE 10.4 mph - N/A   Haze
1:55 PM 66.2 °F 53.6 °F 64% 30.30 in 10.0 mi SW 6.9 mph - N/A   Overcast
2:45 PM 66.2 °F 53.6 °F 64% 30.30 in 10.0 mi Calm Calm - N/A   Overcast
3:55 PM 69.8 °F 50.0 °F 49% 30.27 in 10.0 mi Calm Calm - N/A   Mostly Cloudy
4:50 PM 73.4 °F 46.4 °F 38% 30.24 in 10.0 mi NNE 4.6 mph - N/A   Mostly Cloudy
5:55 PM 71.6 °F 48.2 °F 43% 30.22 in 10.0 mi NNE 4.6 mph - N/A   Overcast
6:15 PM 71.6 °F 48.2 °F 43% 30.22 in 10.0 mi North 4.6 mph - N/A   Overcast
6:35 PM 69.8 °F 48.2 °F 46% 30.23 in 10.0 mi Calm Calm - N/A   Mostly Cloudy
6:55 PM 68.0 °F 50.0 °F 52% 30.23 in 10.0 mi Calm Calm - N/A   Overcast
7:15 PM 68.0 °F 50.0 °F 52% 30.23 in 10.0 mi Calm Calm - N/A   Overcast
7:35 PM 66.2 °F 48.2 °F 52% 30.23 in 10.0 mi SSE 3.5 mph - N/A   Mostly Cloudy
7:55 PM 66.2 °F 50.0 °F 56% 30.23 in 10.0 mi Calm Calm - N/A   Scattered Clouds
8:15 PM 66.2 °F 50.0 °F 56% 30.23 in 10.0 mi NNW 3.5 mph - N/A   Mostly Cloudy
8:35 PM 66.2 °F 50.0 °F 56% 30.24 in 10.0 mi Calm Calm - N/A   Overcast
8:55 PM 64.4 °F 50.0 °F 59% 30.25 in 10.0 mi Calm Calm - N/A   Mostly Cloudy
9:15 PM 59.0 °F 48.2 °F 67% 30.25 in 10.0 mi South 4.6 mph - N/A   Partly Cloudy
9:35 PM 59.0 °F 48.2 °F 67% 30.25 in 10.0 mi SE 5.8 mph - N/A   Clear
9:55 PM 60.8 °F 48.2 °F 63% 30.25 in 10.0 mi SE 3.5 mph - N/A   Scattered Clouds
10:15 PM 59.0 °F 48.2 °F 67% 30.25 in 10.0 mi SE 3.5 mph - N/A   Mostly Cloudy
10:35 PM 60.8 °F 48.2 °F 63% 30.25 in 10.0 mi NNW 4.6 mph - N/A   Mostly Cloudy
10:55 PM 60.8 °F 48.2 °F 63% 30.25 in 10.0 mi East 3.5 mph - N/A   Clear
11:15 PM 57.2 °F 46.4 °F 67% 30.25 in 10.0 mi ESE 4.6 mph - N/A   Clear
11:35 PM 57.2 °F 48.2 °F 72% 30.24 in 10.0 mi Calm Calm - N/A   Clear
11:55 PM 55.4 °F 46.4 °F 72% 30.24 in 10.0 mi Calm Calm - N/A   Clear